Location: Apeadero de Las Zorreras
(40.6167°N, 4.0500°W)
Time: 21:54:33
(UTC+00:00)

Daily predictions for brighter satellites

Satellite Brightness Start Highest point End
(mag) Time Altitude Azimuth Time Altitude Azimuth Time Altitude Azimuth
ATLAS 2AS CENTAUR R/B 3.9 18:25:14 10° SSE 18:31:23 26° ESE 18:37:35 10° ENE
Cosmos 1025 Rocket 4.0 18:32:04 10° NNE 18:35:53 28° ENE 18:39:41 10° SE
ATLAS 3B R/B 4.5 18:32:56 10° N 18:36:50 15° NNE 18:40:47 10° ENE
IRS-1C Rocket 4.3 18:32:17 10° S 18:37:31 78° WSW 18:42:48 10° NNW
Abrixas rocket 3.9 18:37:18 10° NW 18:39:26 19° N 18:41:34 10° ENE
SKYMED 2 4.0 18:35:57 10° N 18:40:17 68° WNW 18:44:35 10° SSW
Cosmos 1125 Rocket 4.0 18:39:33 10° SSE 18:44:23 37° E 18:49:15 10° NE
Okean 2 4.4 18:40:30 10° NNW 18:44:34 53° W 18:48:35 10° S
Cosmos 1867 3.9 18:45:23 10° NW 18:50:50 71° WSW 18:56:14 10° SSE
CZ-2D R/B 3.4 18:47:11 10° S 18:51:03 80° WSW 18:54:57 10° NNW
CZ-4 R/B 1.4 18:46:54 10° SSE 18:51:07 82° ENE 18:55:18 10° N
Cosmos 2150 Rocket 4.1 18:45:54 10° S 18:51:12 66° ESE 18:56:37 10° NNE
Cosmos 1464 Rocket 4.0 18:46:52 10° S 18:52:53 62° E 18:58:59 10° NNE
CZ-2C R/B 3.3 18:48:01 10° SSE 18:53:13 57° ENE 18:58:43 10° N
Okean-O 2.8 18:50:32 10° S 18:54:57 79° WSW 18:59:25 10° NNW
Cosmos 2285 Rocket 4.4 18:49:14 10° SSE 18:55:01 40° E 19:00:51 10° NE
USA 238 DEB 4.0 18:48:01 10° NNW 18:55:10 58° NE 19:02:33 10° SE
USA 238 4.0 18:48:08 10° NNW 18:55:16 57° NE 19:02:40 10° SE
Cosmos 1674 4.0 18:55:00 10° NNE 18:58:00 21° ENE 19:00:17 13° ESE
MOS 1 Rocket 3.3 19:01:01 10° NNE 19:05:12 46° E 19:09:17 10° S
ARGOS 3.5 19:03:50 10° SE 19:08:53 45° ENE 19:13:59 10° N
In-Cosmos 22 4.0 19:07:04 10° N 19:12:24 74° E 19:17:49 10° SSE
Cosmos 1048 Rocket 4.0 19:07:59 10° NNW 19:13:19 66° ENE 19:18:38 10° SSE
Cosmos 1733 4.4 19:13:48 21° E 19:14:09 22° E 19:17:07 10° NE
Cosmos 2151 Rocket 3.5 19:10:17 10° S 19:14:44 76° E 19:19:14 10° N
CZ-2C R/B 3.4 19:10:36 10° NNE 19:15:32 31° E 19:20:29 10° SSE
HJ-1C 3.2 19:12:34 10° SSE 19:15:50 68° ENE 19:19:07 10° N
IRIS 4.3 19:12:13 10° WSW 19:16:38 78° S 19:18:07 27° E
NOSS 3-2 (A) 4.1 19:12:03 10° NNW 19:19:46 84° ENE 19:28:22 10° SE
Shenzhou-11 Module 0.9 19:18:25 10° WSW 19:20:30 67° SSE 19:20:33 67° SSE
BREEZE-M DEB (TANK) 3.0 19:18:54 10° NW 19:21:59 69° NNE 19:27:36 19° ESE
Meteor 1-15 Rocket 4.2 19:19:46 10° S 19:25:19 64° E 19:31:00 10° NNE
Cosmos 1805 3.5 19:22:13 10° SSE 19:25:56 44° E 19:29:41 10° NNE
Cosmos 494 Rocket 4.1 19:20:55 10° N 19:26:06 55° ENE 19:29:53 18° SE
ATLAS 5 CENTAUR R/B 3.8 19:23:12 10° NW 19:26:51 50° SW 19:38:38 10° SSE
Milstar 3 Cent rocket 3.7 19:23:30 10° SW 19:29:57 25° S 19:32:39 18° SE
Ariane Rocket 3.4 19:28:06 23° SE 19:30:47 40° ENE 19:35:32 10° N
SL-08 RB Rocket 3.9 19:27:52 20° SE 19:30:47 48° ENE 19:35:10 10° N
H-2A R/B 2.0 19:27:08 10° SSE 19:32:07 85° WSW 19:37:15 10° NNW
USA 234 4.2 19:38:13 24° ESE 19:38:16 24° ESE 19:43:23 10° S
KORONAS-FOTON 3.7 19:35:46 10° N 19:39:41 67° E 19:41:31 29° SSE
Nadezhda 4 Rocket 3.9 19:33:37 10° N 19:39:46 88° E 19:45:54 10° S
USA 186 2.0 19:42:34 51° NE 19:42:34 51° NE 19:45:31 10° N
Cosmos 1626 3.6 19:40:06 10° NNE 19:42:02 23° NE 19:42:02 23° NE
Cosmos 1844 Rocket 3.6 19:38:44 10° SW 19:44:05 49° WNW 19:49:32 10° NNE
CZ-2C R/B 3.2 19:42:04 10° WSW 19:44:20 15° SSW 19:45:20 14° S
ISS -1.1 19:44:23 10° NW 19:46:11 14° N 19:47:47 11° NNE
COSMOS 2406 3.9 19:41:51 10° N 19:46:57 33° ENE 19:47:56 31° ENE
Cosmos 2278 Rocket 3.2 19:43:14 10° SSE 19:51:32 19° NE 19:53:19 10° NE
IRS-1A Rocket 4.3 19:47:48 23° SSE 19:51:30 65° ENE 19:57:17 10° N
Cosmos 1844 4.5 19:46:11 10° SW 19:51:44 53° WNW 19:57:17 10° NNE
Meteor 1-22 Rocket 4.4 19:47:29 10° S 19:53:12 56° E 19:59:05 10° NNE
Lacrosse 4 Rocket 3.8 19:52:26 10° NNE 19:52:52 11° NNE 19:52:52 11° NNE
Exosat Rocket 4.0 19:50:46 10° SSW 19:56:18 64° WNW 20:01:16 10° NNE
Meteor 2-5 Rocket 3.7 19:52:16 10° N 19:57:58 69° E 20:00:46 31° SSE
NOSS 3-2 (C) 4.1 19:50:19 10° NW 19:58:03 89° WSW 20:03:38 25° SSE
Okean 1 Rocket 3.1 19:53:58 10° S 19:58:27 80° W 20:02:58 10° N
NOSS 3-4 (A) 3.3 19:53:19 10° SW 19:59:11 84° NW 20:05:26 10° NNE
NOSS 3-4 (C) 3.3 19:53:25 10° SW 19:59:17 85° NW 20:05:32 10° NNE
Meteor 1-24 Rocket 3.8 19:54:46 10° N 20:00:16 55° ENE 20:01:38 44° ESE
Resurs 01 Rocket 3.4 20:03:26 19° NNE 20:03:26 19° NNE 20:05:11 10° NNE
SL-14 R/B 4.4 19:59:33 10° N 20:01:55 31° NNE 20:01:55 31° NNE
Meteor 2-13 Rocket 4.4 19:57:38 10° N 20:03:50 89° E 20:08:36 18° S
Cosmos 1766 3.5 20:03:48 10° SSW 20:07:41 67° W 20:11:38 10° N
Cosmos 1833 Rocket 3.3 20:06:51 10° N 20:11:54 38° NE 20:11:54 38° NE
Abrixas rocket 4.4 20:12:16 10° NW 20:13:27 22° NW 20:13:27 22° NW
CENTAUR R/B 3.3 20:08:39 10° NW 20:16:55 75° WSW 20:22:00 29° SSE
SPOT 3 Rocket 3.9 20:20:50 48° NE 20:20:50 48° NE 20:25:06 10° N
Cosmos 1634 Rocket 3.9 20:15:28 10° S 20:21:37 84° W 20:27:51 10° N
ATLAS 2AS CENTAUR R/B 3.2 20:13:49 10° SW 20:21:44 74° NW 20:29:40 10° NNE
SJ-6B 3.6 20:24:09 47° NW 20:24:09 47° NW 20:27:07 10° NNW
ATLAS 3B R/B 2.9 20:22:27 10° NNW 20:29:11 52° NE 20:29:50 50° ENE
Gbstr 26 Del rocket 4.4 20:29:35 10° SSW 20:35:23 55° SSE 20:35:23 55° SSE
Cosmos 2026 Rocket 4.4 20:38:07 10° NNW 20:44:25 63° W 20:46:52 38° SSW
CZ-2C R/B 4.2 20:50:45 10° N 20:55:47 36° WNW 21:00:50 10° SW
Lacrosse 5 rocket 4.0 20:54:52 10° NNW 20:56:20 15° N 20:56:20 15° N
Cosmos 2279 Rocket 4.1 20:57:29 66° WSW 20:58:05 71° W 21:04:22 10° N
Cosmos 2082 Rocket 3.3 20:59:47 10° NNW 21:03:08 35° N 21:03:08 35° N
Cosmos 2278 Rocket 3.7 21:27:12 10° WSW 21:33:01 33° NW 21:37:25 10° N
Resurs 01 Rocket 4.5 21:41:01 15° NW 21:41:01 15° NW 21:41:55 10° NW
ATLAS 3B R/B 4.4 22:13:32 10° NW 22:17:06 26° WNW 22:17:06 26° WNW
